EW6956 Weather Reports


time (UTC)temp
C
wind
direction
speed
KPH
gust
KPH
rain 1hr
cm
rain 24hr
cm
rain mn
cm
humidity
%
barometer
mb
20260506004511 11 61 0.0 8.0 0.00 0.03 0.03 1 1007.7
20260506003003 12 360 0.0 12.9 0.00 0.03 0.03 1 1007.2
20260506001559 12 273 0.0 14.5 0.00 0.03 0.03 1 1007.0
20260506000053 12 301 0.0 8.0 0.00 0.03 0.03 1 1006.7
20260505234614 13 269 1.6 11.3 0.00 0.03 0.03 1 1006.2
20260505233044 13 38 0.0 1.6 0.00 0.03 0.03 1 1006.3
20260505231540 13 5 0.0 6.4 0.00 0.03 0.03 1 1006.0
20260505230041 13 29 0.0 4.8 0.00 0.03 0.03 1 1006.0
20260505224534 13 20 0.0 0.0 0.00 0.03 0.03 1 1006.0
20260505223027 14 118 0.0 8.0 0.00 0.03 0.03 1 1005.5
20260505221522 15 325 0.0 4.8 0.00 0.03 0.03 1 1005.2
20260505220024 15 280 0.0 0.0 0.00 0.03 0.03 1 1005.4
20260505214522 15 29 0.0 0.0 0.00 0.03 0.03 1 1004.9
20260505213009 15 30 0.0 0.0 0.00 0.03 0.03 1 1005.2
20260505211505 15 244 0.0 0.0 0.00 0.03 0.03 1 1005.6
20260505204600 16 360 1.6 16.1 0.00 0.03 0.03 1 1004.5
20260505203054 16 52 0.0 12.9 0.00 0.03 0.03 1 1005.1
20260505201547 18 360 0.0 16.1 0.03 0.03 0.03 1 1004.9
20260505200043 18 284 0.0 0.0 0.03 0.03 0.03 1 1004.7
20260505194543 18 35 0.0 0.0 0.03 0.03 0.03 1 1004.7
20260505193041 18 34 0.0 0.0 0.03 0.03 0.03 1 1004.4
20260505191544 18 30 0.0 0.0 0.00 0.00 0.00 1 1004.6
20260505190030 18 30 0.0 0.0 0.00 0.00 0.00 1 1004.8
20260505184523 18 315 0.0 0.0 0.00 0.00 0.00 1 1004.5
20260505183018 18 315 0.0 0.0 0.00 0.00 0.00 1 1004.5
20260505181512 18 299 0.0 0.0 0.00 0.00 0.00 1 1004.7
20260505180007 18 300 0.0 0.0 0.00 0.00 0.00 1 1004.7
20260505174503 18 17 0.0 1.6 0.00 0.00 0.00 1 1004.7
20260505173100 18 46 0.0 1.6 0.00 0.00 0.00 1 1004.6
20260505171554 18 17 0.0 0.0 0.00 0.00 0.00 1 1004.5
20260505170122 18 34 0.0 0.0 0.00 0.00 0.00 1 1004.6
20260505164549 18 34 0.0 1.6 0.00 0.00 0.00 1 1004.7
20260505163044 18 28 0.0 0.0 0.00 0.00 0.00 1 1004.7
20260505161537 18 48 0.0 6.4 0.00 0.00 0.00 1 1004.4
20260505153031 18 53 0.0 1.6 0.00 0.00 0.00 1 1005.1
20260505151519 17 12 0.0 0.0 0.00 0.00 0.00 1 1005.0
20260505124516 16 306 0.0 0.0 0.00 0.03 0.00 1 1004.2
20260505123013 16 53 0.0 0.0 0.00 0.03 0.00 1 1004.2
20260505121513 16 336 0.0 0.0 0.00 0.03 0.00 1 1004.1
20260505120006 16 342 0.0 6.4 0.00 0.03 0.00 1 1003.7
20260505114502 16 330 0.0 3.2 0.00 0.03 0.00 1 1004.7
20260505113058 15 306 0.0 0.0 0.00 0.03 0.00 1 1004.9
20260505111605 15 306 0.0 0.0 0.00 0.03 0.00 1 1005.6
20260505101536 16 239 0.0 0.0 0.00 0.03 0.00 1 1004.2
20260505100035 16 67 0.0 1.6 0.00 0.03 0.00 1 1004.0
20260505094528 16 149 0.0 0.0 0.00 0.03 0.00 1 1005.5
20260505093027 17 149 0.0 0.0 0.00 0.03 0.00 14 1004.8
20260505091520 17 149 0.0 0.0 0.00 0.03 0.00 31 1004.7
20260505090015 18 149 0.0 0.0 0.00 0.03 0.00 52 1004.7
20260505084518 18 149 0.0 0.0 0.00 0.03 0.00 58 1004.1
20260505083020 18 146 0.0 0.0 0.00 0.03 0.00 60 1003.6
20260505081516 18 344 0.0 0.0 0.00 0.03 0.00 61 1003.3
20260505080028 18 102 0.0 0.0 0.00 0.03 0.00 60 1003.4
20260505074509 18 55 0.0 0.0 0.00 0.03 0.00 60 1003.7
20260505073009 18 143 0.0 0.0 0.00 0.03 0.00 59 1003.8
20260505071504 17 149 0.0 0.0 0.00 0.03 0.00 58 1004.3
20260505070002 17 121 0.0 0.0 0.00 0.03 0.00 57 1004.6
20260505064605 17 128 0.0 0.0 0.00 0.03 0.00 56 1004.6
20260505063059 18 128 0.0 0.0 0.00 0.03 0.00 58 1004.8
20260505061557 18 128 0.0 0.0 0.00 0.03 0.00 58 1004.9
20260505060101 18 60 0.0 0.0 0.00 0.03 0.00 58 1005.0
20260505054601 18 207 0.0 0.0 0.00 0.03 0.00 58 1005.3
20260505053108 18 33 0.0 0.0 0.00 0.03 0.00 57 1005.5
20260505051550 18 162 0.0 0.0 0.00 0.03 0.00 55 1005.7
20260505041536 18 98 0.0 0.0 0.00 0.03 0.03 52 1006.0
20260505040031 18 98 0.0 0.0 0.00 0.03 0.03 52 1006.1
20260505034527 18 98 0.0 0.0 0.00 0.03 0.03 55 1006.3
20260505033022 19 97 0.0 0.0 0.00 0.03 0.03 55 1006.4
20260505031518 19 96 0.0 0.0 0.00 0.03 0.03 59 1006.3
20260505030013 19 60 0.0 0.0 0.00 0.03 0.03 60 1006.0
20260505024528 20 320 0.0 0.0 0.00 0.03 0.03 61 1006.0
20260505023004 20 319 0.0 0.0 0.00 0.03 0.03 61 1005.7
20260505021600 20 319 0.0 0.0 0.00 0.03 0.03 62 1005.6
20260505020056 21 316 0.0 0.0 0.00 0.03 0.03 62 1005.4
20260505014552 21 181 0.0 0.0 0.00 0.03 0.03 60 1005.2
20260505013047 22 268 0.0 0.0 0.00 0.03 0.03 58 1004.8
20260505011543 22 269 0.0 0.0 0.00 0.03 0.03 57 1004.8
20260505010042 22 327 0.0 0.0 0.00 0.03 0.03 59 1004.5